FW7438 Weather Reports


time (UTC)temp
F
wind
direction
speed
knots
gust
knots
rain 1hr
in
rain 24hr
in
rain mn
in
humidity
%
barometer
mb
20260510142956 64 333 2.6 9.6 0.00 0.00 0.00 69 1018.3
20260510141456 63 45 1.7 5.2 0.00 0.00 0.00 72 1018.1
20260510135957 62 68 1.7 7.0 0.00 0.00 0.00 74 1017.8
20260510134455 62 117 2.6 9.6 0.00 0.00 0.00 75 1017.6
20260510132955 62 96 2.6 9.6 0.00 0.00 0.00 76 1017.4
20260510125955 61 70 0.9 4.3 0.00 0.00 0.00 81 1016.9
20260510124455 60 101 1.7 7.8 0.00 0.00 0.00 82 1016.7
20260510122955 59 20 1.7 7.0 0.00 0.00 0.00 84 1016.4
20260510121456 58 94 1.7 5.2 0.00 0.00 0.00 86 1016.1
20260510115954 58 75 0.9 4.3 0.00 0.00 0.00 87 1016.0
20260510114456 57 77 0.9 3.5 0.00 0.00 0.00 87 1015.8
20260510112955 57 99 0.9 4.3 0.00 0.00 0.00 88 1015.4
20260510111455 57 136 0.0 2.6 0.00 0.00 0.00 88 1015.2
20260510105953 56 152 0.0 1.7 0.00 0.00 0.00 89 1015.0
20260510104454 56 185 0.0 0.9 0.00 0.00 0.00 89 1015.0
20260510102954 55 185 0.0 0.9 0.00 0.00 0.00 90 1015.0
20260510101455 55 244 0.0 0.0 0.00 0.00 0.00 91 1014.9
20260510095955 55 244 0.0 0.0 0.00 0.01 0.00 91 1014.4
20260510092954 54 244 0.0 0.0 0.00 0.01 0.00 90 1014.0
20260510091454 55 244 0.0 0.0 0.00 0.01 0.00 90 1013.7
20260510085957 55 244 0.0 0.0 0.00 0.01 0.00 89 1013.8
20260510084455 55 244 0.0 0.0 0.00 0.01 0.00 89 1013.7
20260510082955 55 244 0.0 0.0 0.00 0.01 0.00 90 1013.4
20260510081455 55 244 0.0 0.0 0.00 0.01 0.00 90 1013.2
20260510075956 55 244 0.0 0.0 0.00 0.01 0.00 89 1013.4
20260510074455 55 244 0.0 0.0 0.00 0.01 0.00 89 1013.5
20260510072955 54 244 0.0 0.0 0.00 0.01 0.00 88 1013.4
20260510071454 55 244 0.0 0.0 0.00 0.01 0.00 87 1013.3
20260510062954 57 244 0.0 0.0 0.00 0.01 0.00 83 1013.3
20260510061454 58 244 0.0 0.9 0.00 0.01 0.00 81 1013.3
20260510055959 59 243 0.0 0.0 0.00 0.01 0.00 80 1013.4
20260510051458 56 231 0.0 0.0 0.00 0.01 0.00 85 1013.0
20260510044457 57 231 0.0 0.0 0.00 0.01 0.01 85 1012.5
20260510042958 58 231 0.0 0.0 0.00 0.01 0.01 84 1012.4
20260510041459 58 231 0.0 0.9 0.00 0.01 0.01 84 1012.3
20260510035959 58 232 0.0 0.0 0.00 0.01 0.01 84 1012.0
20260510034458 58 232 0.0 0.0 0.00 0.04 0.01 82 1012.0
20260510032959 58 232 0.0 0.0 0.00 0.04 0.01 80 1012.1
20260510031458 59 232 0.0 0.0 0.00 0.04 0.01 81 1012.0
20260510025958 59 232 0.0 1.7 0.00 0.04 0.01 79 1012.0
20260510024456 60 232 0.0 0.0 0.00 0.04 0.01 78 1011.6
20260510022956 61 232 0.0 0.0 0.00 0.04 0.01 76 1011.2
20260510021457 62 232 0.0 0.0 0.00 0.04 0.01 73 1010.8
20260510014457 65 232 0.0 0.0 0.00 0.04 0.01 69 1010.2
20260510012958 67 232 0.0 0.0 0.00 0.04 0.01 64 1010.1
20260510011458 69 232 0.0 0.0 0.00 0.04 0.01 59 1009.9
20260510005956 72 232 0.0 0.0 0.00 0.04 0.01 55 1009.8
20260510004456 75 231 0.0 0.0 0.00 0.04 0.01 52 1009.5
20260510001456 78 231 0.0 0.0 0.00 0.04 0.01 49 1009.6
20260509235959 79 231 0.0 0.0 0.00 0.04 0.01 46 1009.5
20260509234458 81 231 0.0 0.9 0.00 0.04 0.01 43 1009.5
20260509232958 81 230 0.9 2.6 0.00 0.04 0.01 43 1009.5
20260509231457 81 242 0.0 0.0 0.00 0.04 0.01 39 1009.6
20260509225957 81 259 0.0 1.7 0.00 0.04 0.01 41 1009.6
20260509224456 81 212 1.7 4.3 0.00 0.04 0.01 37 1009.5
20260509222956 82 288 0.9 4.3 0.00 0.04 0.01 41 1009.5
20260509221457 81 234 0.9 3.5 0.00 0.04 0.01 40 1009.5
20260509215956 81 204 0.9 4.3 0.00 0.04 0.01 44 1009.6
20260509214458 82 194 0.9 2.6 0.00 0.04 0.01 40 1009.6
20260509212956 82 277 0.9 3.5 0.00 0.04 0.01 35 1009.6
20260509211457 81 275 0.9 4.3 0.00 0.04 0.01 39 1009.6
20260509205957 81 230 1.7 7.0 0.00 0.04 0.01 39 1009.8
20260509204457 81 236 1.7 7.0 0.00 0.04 0.01 39 1009.9
20260509202956 81 306 0.9 3.5 0.00 0.04 0.01 43 1009.9
20260509201457 81 300 0.9 5.2 0.00 0.04 0.01 39 1010.1
20260509194457 80 318 0.9 5.2 0.00 0.04 0.01 41 1010.5
20260509191457 80 225 1.7 5.2 0.00 0.04 0.01 45 1010.6
20260509185957 79 311 1.7 6.1 0.00 0.04 0.01 46 1010.6
20260509182956 79 247 1.7 6.1 0.00 0.04 0.01 43 1010.6
20260509181456 78 268 1.7 6.1 0.00 0.04 0.01 44 1010.6
20260509175956 78 295 1.7 7.8 0.00 0.04 0.01 50 1010.6
20260509174456 78 296 0.9 4.3 0.00 0.04 0.01 48 1010.7
20260509172956 78 322 1.7 6.1 0.00 0.04 0.01 53 1010.8
20260509164456 76 243 1.7 5.2 0.00 0.04 0.01 58 1011.0
20260509162956 75 294 2.6 6.1 0.00 0.04 0.01 59 1011.1
20260509161456 74 261 1.7 4.3 0.00 0.04 0.01 64 1011.2
20260509155956 73 249 0.9 5.2 0.00 0.04 0.01 67 1011.2
20260509154456 71 262 1.7 5.2 0.00 0.04 0.01 67 1011.1
20260509152956 70 276 1.7 4.3 0.00 0.04 0.01 75 1011.1
20260509151456 69 304 1.7 4.3 0.00 0.04 0.01 75 1011.1
20260509145956 68 276 0.9 4.3 0.00 0.04 0.01 77 1011.1
20260509144456 66 282 0.9 3.5 0.00 0.04 0.01 83 1010.9